Regional Weather Roundup
Issued by NWS

Home | Current Version | Previous Version | Graphics & Text | Print | Product List | Glossary On
Versions: 1 2 3 4 5 6 7 8 9 10 11 12 13 14 15 16 17 18 19 20 21 22 23 24 25 26 27 28 29 30 31 32 33 34 35 36 37 38 39 40 41 42 43 44 45 46 47 48 49 50
000
ASUS45 KCYS 291510
RWRWY

WYOMING REGIONAL WEATHER ROUNDUP
NATIONAL WEATHER SERVICE CHEYENNE WY
900 AM MDT MON SEP 29 2014

NOTE:  "FAIR" INDICATES FEW OR NO CLOUDS BELOW 12,000 FEET
WITH NO SIGNIFICANT WEATHER AND/OR OBSTRUCTIONS TO VISIBILITY.

WYZ001-291600-
YELLOWSTONE NATIONAL PARK

CITY           SKY/WX    TMP DP  RH WIND       PRES   REMARKS
LK YELLOWSTONE   N/A     41  39  93 CALM      30.06F
W YELLOWSTONE  NOT AVBL

$$
WYZ002>013-054>058-071-098>099-291600-
NORTHERN WYOMING

CITY           SKY/WX    TMP DP  RH WIND       PRES   REMARKS
JACKSON        CLOUDY    43  41  93 CALM      30.02S FOG
CODY           PTSUNNY   45  45 100 CALM      30.01F
GREYBULL       CLOUDY    50  48  93 NE3       30.00F
WORLAND        CLOUDY    50  47  89 N6        30.00F
SHERIDAN       CLOUDY    49  47  93 CALM      30.01F
BUFFALO        CLOUDY    47  46  97 E3        30.02F
GILLETTE       CLOUDY    52  49  89 S10       30.02F
HULETT         CLOUDY    48  45  87 SE7       30.07
NEWCASTLE      CLOUDY    50  50 100 S6        30.07

$$
WYZ014>020-022>026-101>103-291600-
CENTRAL WYOMING

CITY           SKY/WX    TMP DP  RH WIND       PRES   REMARKS
BIG PINEY      CLOUDY    43  41  93 S12       30.06R
PINEDALE       CLOUDY    43  41  93 S9        30.07R
DUBOIS         CLOUDY    41  39  93 SE7       30.04S FOG
LANDER         CLOUDY    47  47 100 NW5       30.00F
RIVERTON       CLOUDY    47  46  97 NE7       30.02F
CASPER         CLOUDY    47  44  90 CALM      30.05R
DOUGLAS        CLOUDY    52  49  89 S6        30.06F

$$
WYZ021-027>030-104>119-291600-
SOUTHERN WYOMING

CITY           SKY/WX    TMP DP  RH WIND       PRES   REMARKS
EVANSTON       CLOUDY    41  39  93 SE3       30.07R
KEMMERER       CLOUDY    41  39  93 SE5       30.07S
FORT BRIDGER   CLOUDY    43  43 100 SW6       30.10R
ROCK SPRINGS   CLOUDY    44  40  85 SE8       30.05F
DIXON          FAIR      47  42  84 CALM      30.09S
RAWLINS        PTSUNNY   44  42  93 CALM      30.07S
SARATOGA         N/A     48  43  81 SE8       30.09S
LARAMIE        PTSUNNY   48  44  86 S3        30.10R
CHEYENNE       MOSUNNY   52  47  83 N6        30.07F
TORRINGTON     CLOUDY    53  50  89 NE16      29.99F
PINE BLUFFS    PTSUNNY   52  50  93 NE5       30.05R

$$



USA.gov is the U.S. government's official web portal to all federal, state and local government web resources and services.